Location: Brunembert
(50.7122°N, 1.8935°E)
Time: 10:17:42
(UTC+00:00)

Cosmos 1745 Rocket - Pass Details

Date: 22 April 2021
Orbit: 952 x 998 km, 83.0° (Epoch: 16 May)

Event Time Altitude Azimuth Distance (km) Brightness Sun altitude
Rises 21:42:26 0° 351° (N) 3,718 8.2 -20.9°
Reaches altitude 10° 21:45:01 10° 354° (N) 2,760 7.3 -21.1°
Maximum altitude 21:51:19 66° 77° (ENE) 1,070 4.1 -21.6°
Enters shadow 21:53:26 42° 142° (SE) 1,366 4.3 -21.8°
